Location: Ripley
(48.3812°N, 115.4473°W)
Time: 02:36:08
(UTC+00:00)

VELOX 1 - Pass Details

Date: 05 July 2022
Orbit: 623 x 639 km, 98.4° (Epoch: 17 August)

Event Time Altitude Azimuth Distance (km) Brightness Sun altitude
Rises 10:41:53 0° 119° (ESE) 2,931 ? -8.8°
Reaches altitude 10° 10:44:42 10° 99° (E) 2,030 ? -8.5°
Maximum altitude 10:47:33 17° 59° (ENE) 1,613 ? -8.1°
Drops below altitude 10° 10:50:25 10° 19° (NNE) 2,043 ? -7.8°
Sets 10:53:16 0° 360° (N) 2,959 ? -7.5°
